Location: Arapaho Elementary School
(32.9607°N, 96.7625°W)
Time: 12:33:57
(UTC+00:00)

Cosmos 2228 Rocket - Pass Details

Date: 03 July 2022
Orbit: 618 x 651 km, 82.5° (Epoch: 10 August)

Event Time Altitude Azimuth Distance (km) Brightness Sun altitude
Rises 10:29:20 0° 347° (NNW) 2,915 6.8 -10.4°
Reaches altitude 10° 10:31:36 10° 343° (NNW) 2,009 5.9 -10.0°
Maximum altitude 10:35:56 52° 267° (W) 784 3.3 -9.3°
Drops below altitude 10° 10:40:16 10° 191° (S) 2,016 5.3 -8.5°
Sets 10:42:33 0° 186° (S) 2,926 6.1 -8.1°
